Year,Month,Day,Hour,Minute,Value (Times are PST for temperature in C)
2015,02,21,00,00,4.80
2015,02,21,00,01,4.80
2015,02,21,00,02,4.80
2015,02,21,00,03,4.80
2015,02,21,00,04,4.80
2015,02,21,00,05,4.80
2015,02,21,00,06,4.90
2015,02,21,00,07,4.90
2015,02,21,00,08,4.90
2015,02,21,00,09,4.90
2015,02,21,00,10,4.90
2015,02,21,00,11,4.90
2015,02,21,00,12,5.00
2015,02,21,00,13,5.00
2015,02,21,00,14,5.00
2015,02,21,00,15,5.00
2015,02,21,00,16,5.00
2015,02,21,00,17,5.00
2015,02,21,00,18,5.00
2015,02,21,00,19,5.00
2015,02,21,00,20,5.00
2015,02,21,00,21,5.00
2015,02,21,00,22,5.00
2015,02,21,00,23,5.10
2015,02,21,00,24,5.10
2015,02,21,00,25,5.10
2015,02,21,00,26,5.10
2015,02,21,00,27,5.10
2015,02,21,00,28,5.10
2015,02,21,00,29,5.10
2015,02,21,00,30,5.00
2015,02,21,00,31,5.00
2015,02,21,00,32,5.00
2015,02,21,00,33,5.00
2015,02,21,00,34,5.00
2015,02,21,00,35,5.00
2015,02,21,00,36,5.00
2015,02,21,00,37,5.00
2015,02,21,00,38,5.00
2015,02,21,00,39,5.00
2015,02,21,00,40,5.00
2015,02,21,00,41,5.00
2015,02,21,00,42,5.00
2015,02,21,00,43,4.90
2015,02,21,00,44,4.90
2015,02,21,00,45,4.90
2015,02,21,00,46,4.90
2015,02,21,00,47,4.90
2015,02,21,00,48,4.90
2015,02,21,00,49,4.80
2015,02,21,00,50,4.80
2015,02,21,00,51,4.80
2015,02,21,00,52,4.80
2015,02,21,00,53,4.80
2015,02,21,00,54,4.80
2015,02,21,00,55,4.80
2015,02,21,00,56,4.80
2015,02,21,00,57,4.80
2015,02,21,00,58,4.80
2015,02,21,00,59,4.80
2015,02,21,01,00,4.80
2015,02,21,01,01,4.80
2015,02,21,01,02,4.80
2015,02,21,01,03,4.80
2015,02,21,01,04,4.80
2015,02,21,01,05,4.80
2015,02,21,01,06,4.80
2015,02,21,01,07,4.90
2015,02,21,01,08,4.90
2015,02,21,01,09,4.90
2015,02,21,01,10,4.90
2015,02,21,01,11,4.90
2015,02,21,01,12,4.90
2015,02,21,01,13,4.90
2015,02,21,01,14,4.80
2015,02,21,01,15,4.80
2015,02,21,01,16,4.80
2015,02,21,01,17,4.80
2015,02,21,01,18,4.80
2015,02,21,01,19,4.80
2015,02,21,01,20,4.80
2015,02,21,01,21,4.80
2015,02,21,01,22,4.80
2015,02,21,01,23,4.80
2015,02,21,01,24,4.80
2015,02,21,01,25,4.80
2015,02,21,01,26,4.80
2015,02,21,01,27,4.80
2015,02,21,01,28,4.80
2015,02,21,01,29,4.80
2015,02,21,01,30,4.70
2015,02,21,01,31,4.70
2015,02,21,01,32,4.70
2015,02,21,01,33,4.70
2015,02,21,01,34,4.70
2015,02,21,01,35,4.70
2015,02,21,01,36,4.70
2015,02,21,01,37,4.70
2015,02,21,01,38,4.70
2015,02,21,01,39,4.70
2015,02,21,01,40,4.70
2015,02,21,01,41,4.70
2015,02,21,01,42,4.70
2015,02,21,01,43,4.70
2015,02,21,01,44,4.70
2015,02,21,01,45,4.70
2015,02,21,01,46,4.70
2015,02,21,01,47,4.70
2015,02,21,01,48,4.80
2015,02,21,01,49,4.80
2015,02,21,01,50,4.80
2015,02,21,01,51,4.80
2015,02,21,01,52,4.80
2015,02,21,01,53,4.80
2015,02,21,01,54,4.80
2015,02,21,01,55,4.80
2015,02,21,01,56,4.80
2015,02,21,01,57,4.80
2015,02,21,01,58,4.80
2015,02,21,01,59,4.80
2015,02,21,02,00,4.70
2015,02,21,02,01,4.70
2015,02,21,02,02,4.70
2015,02,21,02,03,4.70
2015,02,21,02,04,4.70
2015,02,21,02,05,4.70
2015,02,21,02,06,4.70
2015,02,21,02,07,4.80
2015,02,21,02,08,4.80
2015,02,21,02,09,4.80
2015,02,21,02,10,4.80
2015,02,21,02,11,4.80
2015,02,21,02,12,4.80
2015,02,21,02,13,4.70
2015,02,21,02,14,4.70
2015,02,21,02,15,4.70
2015,02,21,02,16,4.70
2015,02,21,02,17,4.70
2015,02,21,02,18,4.60
2015,02,21,02,19,4.60
2015,02,21,02,20,4.60
2015,02,21,02,21,4.60
2015,02,21,02,22,4.50
2015,02,21,02,23,4.50
2015,02,21,02,24,4.50
2015,02,21,02,25,4.50
2015,02,21,02,26,4.50
2015,02,21,02,27,4.50
2015,02,21,02,28,4.50
2015,02,21,02,29,4.50
2015,02,21,02,30,4.50
2015,02,21,02,31,4.60
2015,02,21,02,32,4.60
2015,02,21,02,33,4.50
2015,02,21,02,34,4.60
2015,02,21,02,35,4.60
2015,02,21,02,36,4.60
2015,02,21,02,37,4.60
2015,02,21,02,38,4.50
2015,02,21,02,39,4.60
2015,02,21,02,40,4.60
2015,02,21,02,41,4.60
2015,02,21,02,42,4.60
2015,02,21,02,43,4.60
2015,02,21,02,44,4.60
2015,02,21,02,45,4.60
2015,02,21,02,46,4.50
2015,02,21,02,47,4.50
2015,02,21,02,48,4.60
2015,02,21,02,49,4.60
2015,02,21,02,50,4.60
2015,02,21,02,51,4.60
2015,02,21,02,52,4.60
2015,02,21,02,53,4.60
2015,02,21,02,54,4.60
2015,02,21,02,55,4.60
2015,02,21,02,56,4.60
2015,02,21,02,57,4.60
2015,02,21,02,58,4.70
2015,02,21,02,59,4.70
2015,02,21,03,00,4.70
2015,02,21,03,01,4.80
2015,02,21,03,02,4.80
2015,02,21,04,02,4.60
2015,02,21,04,03,4.60
2015,02,21,04,04,4.60
2015,02,21,04,05,4.60
2015,02,21,04,06,4.60
2015,02,21,04,07,4.60
2015,02,21,04,08,4.60
2015,02,21,04,09,4.60
2015,02,21,04,10,4.60
2015,02,21,04,11,4.50
2015,02,21,04,12,4.50
2015,02,21,04,13,4.50
2015,02,21,04,14,4.50
2015,02,21,04,15,4.50
2015,02,21,04,16,4.50
2015,02,21,04,17,4.50
2015,02,21,04,18,4.50
2015,02,21,04,19,4.40
2015,02,21,04,20,4.40
2015,02,21,04,21,4.40
2015,02,21,04,22,4.40
2015,02,21,04,23,4.40
2015,02,21,04,24,4.40
2015,02,21,04,25,4.40
2015,02,21,04,26,4.40
2015,02,21,04,27,4.40
2015,02,21,04,28,4.40
2015,02,21,04,29,4.40
2015,02,21,04,30,4.40
2015,02,21,04,31,4.40
2015,02,21,04,32,4.30
2015,02,21,04,33,4.30
2015,02,21,04,34,4.30
2015,02,21,04,35,4.30
2015,02,21,04,36,4.30
2015,02,21,04,37,4.30
2015,02,21,04,38,4.20
2015,02,21,04,39,4.20
2015,02,21,04,40,4.20
2015,02,21,04,41,4.20
2015,02,21,04,42,4.20
2015,02,21,04,43,4.20
2015,02,21,04,44,4.20
2015,02,21,04,45,4.20
2015,02,21,04,46,4.20
2015,02,21,04,47,4.20
2015,02,21,04,48,4.20
2015,02,21,04,49,4.10
2015,02,21,04,50,4.10
2015,02,21,04,51,4.10
2015,02,21,04,52,4.10
2015,02,21,04,53,4.10
2015,02,21,04,54,4.10
2015,02,21,04,55,4.10
2015,02,21,04,56,4.10
2015,02,21,04,57,4.10
2015,02,21,04,58,4.10
2015,02,21,04,59,4.10
2015,02,21,05,00,4.10
2015,02,21,05,01,4.10
2015,02,21,05,02,4.10
2015,02,21,05,03,4.10
2015,02,21,05,04,4.10
2015,02,21,05,05,4.10
2015,02,21,05,06,4.10
2015,02,21,05,07,4.10
2015,02,21,05,08,4.10
2015,02,21,05,09,4.10
2015,02,21,05,10,4.00
2015,02,21,05,11,4.00
2015,02,21,05,12,4.00
2015,02,21,05,13,4.00
2015,02,21,05,14,4.00
2015,02,21,05,15,4.00
2015,02,21,05,16,4.00
2015,02,21,05,17,4.00
2015,02,21,05,18,4.00
2015,02,21,05,19,4.00
2015,02,21,05,20,4.00
2015,02,21,05,21,4.00
2015,02,21,05,22,4.00
2015,02,21,05,23,4.00
2015,02,21,05,24,4.00
2015,02,21,05,25,4.00
2015,02,21,05,26,4.00
2015,02,21,05,27,3.90
2015,02,21,05,28,3.90
2015,02,21,05,29,3.90
2015,02,21,05,30,3.90
2015,02,21,05,31,3.90
2015,02,21,05,32,3.90
2015,02,21,05,33,3.90
2015,02,21,05,34,4.00
2015,02,21,05,35,4.00
2015,02,21,05,36,4.00
2015,02,21,05,37,4.00
2015,02,21,05,38,4.00
2015,02,21,05,39,4.00
2015,02,21,05,40,4.00
2015,02,21,05,41,4.00
2015,02,21,05,42,4.00
2015,02,21,05,43,4.00
2015,02,21,05,44,4.00
2015,02,21,05,45,3.90
2015,02,21,05,46,3.90
2015,02,21,05,47,3.90
2015,02,21,05,48,3.80
2015,02,21,05,49,3.80
2015,02,21,05,50,3.80
2015,02,21,05,51,3.80
2015,02,21,05,52,3.80
2015,02,21,05,53,3.80
2015,02,21,05,54,3.80
2015,02,21,05,55,3.80
2015,02,21,05,56,3.80
2015,02,21,05,57,3.80
2015,02,21,05,58,3.80
2015,02,21,05,59,3.80
2015,02,21,06,00,3.80
2015,02,21,06,01,3.80
2015,02,21,06,02,3.80
2015,02,21,06,03,3.80
2015,02,21,06,04,3.70
2015,02,21,06,05,3.70
2015,02,21,06,06,3.70
2015,02,21,06,07,3.70
2015,02,21,06,08,3.60
2015,02,21,06,09,3.60
2015,02,21,06,10,3.60
2015,02,21,06,11,3.50
2015,02,21,06,12,3.50
2015,02,21,06,13,3.50
2015,02,21,06,14,3.40
2015,02,21,06,15,3.40
2015,02,21,06,16,3.40
2015,02,21,06,17,3.40
2015,02,21,06,18,3.40
2015,02,21,06,19,3.40
2015,02,21,06,20,3.40
2015,02,21,06,21,3.40
2015,02,21,06,22,3.40
2015,02,21,06,23,3.40
2015,02,21,06,24,3.40
2015,02,21,06,25,3.40
2015,02,21,06,26,3.40
2015,02,21,06,27,3.40
2015,02,21,06,28,3.40
2015,02,21,06,29,3.40
2015,02,21,06,30,3.30
2015,02,21,06,31,3.30
2015,02,21,06,32,3.30
2015,02,21,06,33,3.30
2015,02,21,06,34,3.20
2015,02,21,06,35,3.20
2015,02,21,06,36,3.20
2015,02,21,06,37,3.10
2015,02,21,06,38,3.10
2015,02,21,06,39,3.10
2015,02,21,06,40,3.10
2015,02,21,06,41,3.00
2015,02,21,06,42,3.00
2015,02,21,06,43,2.90
2015,02,21,06,44,2.90
2015,02,21,06,45,2.90
2015,02,21,06,46,2.80
2015,02,21,06,47,2.80
2015,02,21,06,48,2.80
2015,02,21,06,49,2.70
2015,02,21,06,50,2.70
2015,02,21,06,51,2.70
2015,02,21,06,52,2.70
2015,02,21,06,53,2.70
2015,02,21,06,54,2.70
2015,02,21,06,55,2.70
2015,02,21,06,56,2.70
2015,02,21,06,57,2.60
2015,02,21,06,58,2.60
2015,02,21,06,59,2.60
2015,02,21,07,00,2.60
2015,02,21,07,01,2.60
2015,02,21,07,02,2.60
2015,02,21,07,03,2.60
2015,02,21,07,04,2.50
2015,02,21,07,05,2.50
2015,02,21,07,06,2.50
2015,02,21,07,07,2.50
2015,02,21,07,08,2.40
2015,02,21,07,09,2.40
2015,02,21,07,10,2.40
2015,02,21,07,11,2.40
2015,02,21,07,12,2.40
2015,02,21,07,13,2.40
2015,02,21,07,14,2.40
2015,02,21,07,15,2.40
2015,02,21,07,16,2.40
2015,02,21,07,17,2.40
2015,02,21,07,18,2.40
2015,02,21,07,19,2.40
2015,02,21,07,20,2.50
2015,02,21,07,21,2.50
2015,02,21,07,22,2.50
2015,02,21,07,23,2.50
2015,02,21,07,24,2.50
2015,02,21,07,25,2.50
2015,02,21,07,26,2.50
2015,02,21,07,27,2.50
2015,02,21,07,28,2.60
2015,02,21,07,29,2.60
2015,02,21,07,30,2.60
2015,02,21,07,31,2.60
2015,02,21,07,32,2.60
2015,02,21,07,33,2.70
2015,02,21,07,34,2.70
2015,02,21,07,35,2.80
2015,02,21,07,36,2.80
2015,02,21,07,37,2.80
2015,02,21,07,38,2.80
2015,02,21,07,39,2.80
2015,02,21,07,40,2.90
2015,02,21,07,41,3.00
2015,02,21,07,42,3.10
2015,02,21,07,43,3.10
2015,02,21,07,44,3.20
2015,02,21,07,45,3.20
2015,02,21,07,46,3.30
2015,02,21,07,47,3.30
2015,02,21,07,48,3.30
2015,02,21,07,49,3.30
2015,02,21,07,50,3.40
2015,02,21,07,51,3.40
2015,02,21,07,52,3.40
2015,02,21,07,53,3.50
2015,02,21,07,54,3.50
2015,02,21,07,55,3.50
2015,02,21,07,56,3.50
2015,02,21,07,57,3.60
2015,02,21,07,58,3.60
2015,02,21,07,59,3.60
2015,02,21,08,00,3.60
2015,02,21,08,01,3.60
2015,02,21,08,02,3.60
2015,02,21,08,03,3.60
2015,02,21,08,04,3.60
2015,02,21,08,05,3.60
2015,02,21,08,06,3.60
2015,02,21,08,07,3.60
2015,02,21,08,08,3.70
2015,02,21,08,09,3.70
2015,02,21,08,10,3.70
2015,02,21,08,11,3.70
2015,02,21,08,12,3.70
2015,02,21,08,13,3.70
2015,02,21,08,14,3.80
2015,02,21,08,15,3.80
2015,02,21,08,16,3.80
2015,02,21,08,17,3.80
2015,02,21,08,18,3.80
2015,02,21,08,19,3.90
2015,02,21,08,20,3.90
2015,02,21,08,21,3.90
2015,02,21,08,22,3.90
2015,02,21,08,23,3.90
2015,02,21,08,24,4.00
2015,02,21,08,25,4.00
2015,02,21,08,26,4.10
2015,02,21,08,27,4.10
2015,02,21,08,28,4.10
2015,02,21,08,29,4.10
2015,02,21,08,30,4.20
2015,02,21,08,31,4.20
2015,02,21,08,32,4.20
2015,02,21,08,33,4.20
2015,02,21,08,34,4.30
2015,02,21,08,35,4.30
2015,02,21,08,36,4.30
2015,02,21,08,37,4.30
2015,02,21,08,38,4.40
2015,02,21,08,39,4.40
2015,02,21,08,40,4.40
2015,02,21,08,41,4.50
2015,02,21,08,42,4.50
2015,02,21,08,43,4.60
2015,02,21,08,44,4.60
2015,02,21,08,45,4.60
2015,02,21,08,46,4.60
2015,02,21,08,47,4.70
2015,02,21,08,48,4.70
2015,02,21,08,49,4.70
2015,02,21,08,50,4.70
2015,02,21,08,51,4.80
2015,02,21,08,52,4.80
2015,02,21,08,53,4.80
2015,02,21,08,54,4.80
2015,02,21,08,55,4.80
2015,02,21,08,56,4.90
2015,02,21,08,57,4.90
2015,02,21,08,58,4.90
2015,02,21,08,59,5.00
2015,02,21,09,00,5.00
2015,02,21,09,01,5.10
2015,02,21,09,02,5.10
2015,02,21,09,03,5.10
2015,02,21,09,04,5.20
2015,02,21,09,05,5.20
2015,02,21,09,06,5.20
2015,02,21,09,07,5.30
2015,02,21,09,08,5.30
2015,02,21,09,09,5.40
2015,02,21,09,10,5.40
2015,02,21,09,11,5.50
2015,02,21,09,12,5.50
2015,02,21,09,13,5.60
2015,02,21,09,14,5.60
2015,02,21,09,15,5.60
2015,02,21,09,16,5.70
2015,02,21,09,17,5.70
2015,02,21,09,18,5.80
2015,02,21,09,19,5.80
2015,02,21,09,20,5.80
2015,02,21,09,21,5.90
2015,02,21,09,22,6.00
2015,02,21,09,23,6.00
2015,02,21,09,24,6.10
2015,02,21,09,25,6.10
2015,02,21,09,26,6.20
2015,02,21,09,27,6.20
2015,02,21,09,28,6.30
2015,02,21,09,29,6.30
2015,02,21,09,30,6.40
2015,02,21,09,31,6.40
2015,02,21,09,32,6.50
2015,02,21,09,33,6.60
2015,02,21,09,34,6.60
2015,02,21,09,35,6.70
2015,02,21,09,36,6.70
2015,02,21,09,37,6.70
2015,02,21,09,38,6.80
2015,02,21,09,39,6.80
2015,02,21,09,40,6.90
2015,02,21,09,41,6.90
2015,02,21,09,42,7.00
2015,02,21,09,43,7.00
2015,02,21,09,44,7.10
2015,02,21,09,45,7.10
2015,02,21,09,46,7.20
2015,02,21,09,47,7.20
2015,02,21,09,48,7.30
2015,02,21,09,49,7.30
2015,02,21,09,50,7.30
2015,02,21,09,51,7.40
2015,02,21,09,52,7.40
2015,02,21,09,53,7.50
2015,02,21,09,54,7.60
2015,02,21,09,55,7.60
2015,02,21,09,56,7.60
2015,02,21,09,57,7.70
2015,02,21,09,58,7.70
2015,02,21,09,59,7.80
2015,02,21,10,00,7.80
2015,02,21,10,01,7.80
2015,02,21,10,02,7.90
2015,02,21,10,03,7.90
2015,02,21,10,04,7.90
2015,02,21,10,05,8.00
2015,02,21,10,06,8.00
2015,02,21,10,07,8.00
2015,02,21,10,08,8.10
2015,02,21,10,09,8.10
2015,02,21,10,10,8.10
2015,02,21,10,11,8.10
2015,02,21,10,12,8.10
2015,02,21,10,13,8.10
2015,02,21,10,14,8.10
2015,02,21,10,15,8.10
2015,02,21,10,16,8.10
2015,02,21,10,17,8.20
2015,02,21,10,18,8.20
2015,02,21,10,19,8.20
2015,02,21,10,20,8.20
2015,02,21,10,21,8.20
2015,02,21,10,22,8.20
2015,02,21,10,23,8.20
2015,02,21,10,24,8.20
2015,02,21,10,25,8.20
2015,02,21,10,26,8.20
2015,02,21,10,27,8.20
2015,02,21,10,28,8.20
2015,02,21,10,29,8.20
2015,02,21,10,30,8.20
2015,02,21,10,31,8.20
2015,02,21,10,32,8.20
2015,02,21,10,33,8.20
2015,02,21,10,34,8.10
2015,02,21,10,35,8.10
2015,02,21,10,36,8.10
2015,02,21,10,37,8.10
2015,02,21,10,38,8.10
2015,02,21,10,39,8.10
2015,02,21,10,40,8.10
2015,02,21,10,41,8.10
2015,02,21,10,42,8.10
2015,02,21,10,43,8.10
2015,02,21,10,44,8.10
2015,02,21,10,45,8.20
2015,02,21,10,46,8.20
2015,02,21,10,47,8.20
2015,02,21,10,48,8.20
2015,02,21,10,49,8.20
2015,02,21,10,50,8.20
2015,02,21,10,51,8.20
2015,02,21,10,52,8.20
2015,02,21,10,53,8.20
2015,02,21,10,54,8.30
2015,02,21,10,55,8.30
2015,02,21,10,56,8.30
2015,02,21,10,57,8.30
2015,02,21,10,58,8.30
2015,02,21,10,59,8.30
2015,02,21,11,00,8.30
2015,02,21,11,01,8.40
2015,02,21,11,02,8.40
2015,02,21,11,03,8.40
2015,02,21,11,04,8.40
2015,02,21,11,05,8.40
2015,02,21,11,06,8.50
2015,02,21,11,07,8.50
2015,02,21,11,08,8.50
2015,02,21,11,09,8.50
2015,02,21,11,10,8.60
2015,02,21,11,11,8.60
2015,02,21,11,12,8.70
2015,02,21,11,13,8.70
2015,02,21,11,14,8.70
2015,02,21,11,15,8.80
2015,02,21,11,16,8.70
2015,02,21,11,17,8.70
2015,02,21,11,18,8.70
2015,02,21,11,19,8.80
2015,02,21,11,20,8.80
2015,02,21,11,21,8.80
2015,02,21,11,22,8.80
2015,02,21,11,23,8.80
2015,02,21,11,24,8.80
2015,02,21,11,25,8.80
2015,02,21,11,26,8.80
2015,02,21,11,27,8.80
2015,02,21,11,28,8.80
2015,02,21,11,29,8.80
2015,02,21,11,30,8.80
2015,02,21,11,31,8.80
2015,02,21,11,32,8.80
2015,02,21,11,33,8.80
2015,02,21,11,34,8.80
2015,02,21,11,35,8.80
2015,02,21,11,36,8.80
2015,02,21,11,37,8.80
2015,02,21,11,38,8.80
2015,02,21,11,39,8.90
2015,02,21,11,40,8.90
2015,02,21,11,41,8.90
2015,02,21,11,42,9.00
2015,02,21,11,43,9.00
2015,02,21,11,44,9.00
2015,02,21,11,45,9.00
2015,02,21,11,46,9.00
2015,02,21,11,47,9.00
2015,02,21,11,48,9.00
2015,02,21,11,49,9.00
2015,02,21,11,50,9.00
2015,02,21,11,51,9.00
2015,02,21,11,52,9.00
2015,02,21,11,53,9.00
2015,02,21,11,54,9.10
2015,02,21,11,55,9.10
2015,02,21,11,56,9.20
2015,02,21,11,57,9.20
2015,02,21,11,58,9.30
2015,02,21,11,59,9.40
2015,02,21,12,00,9.40
2015,02,21,12,01,9.50
2015,02,21,12,02,9.50
2015,02,21,12,03,9.50
2015,02,21,12,04,9.50
2015,02,21,12,05,9.50
2015,02,21,12,06,9.50
2015,02,21,12,07,9.50
2015,02,21,12,08,9.50
2015,02,21,12,09,9.60
2015,02,21,12,10,9.60
2015,02,21,12,11,9.70
2015,02,21,12,12,9.70
2015,02,21,12,13,9.70
2015,02,21,12,14,9.80
2015,02,21,12,15,9.80
2015,02,21,12,16,9.90
2015,02,21,12,17,9.90
2015,02,21,12,18,9.90
2015,02,21,12,19,10.00
2015,02,21,12,20,10.00
2015,02,21,12,21,10.10
2015,02,21,12,22,10.10
2015,02,21,12,23,10.20
2015,02,21,12,24,10.20
2015,02,21,12,25,10.30
2015,02,21,12,26,10.30
2015,02,21,12,27,10.30
2015,02,21,12,28,10.30
2015,02,21,12,29,10.30
2015,02,21,12,30,10.40
2015,02,21,12,31,10.40
2015,02,21,12,32,10.40
2015,02,21,12,33,10.40
2015,02,21,12,34,10.40
2015,02,21,12,35,10.40
2015,02,21,12,36,10.40
2015,02,21,12,37,10.50
2015,02,21,12,38,10.50
2015,02,21,12,39,10.50
2015,02,21,12,40,10.60
2015,02,21,12,41,10.60
2015,02,21,12,42,10.60
2015,02,21,12,43,10.60
2015,02,21,12,44,10.60
2015,02,21,12,45,10.70
2015,02,21,12,46,10.70
2015,02,21,12,47,10.70
2015,02,21,12,48,10.70
2015,02,21,12,49,10.70
2015,02,21,12,50,10.70
2015,02,21,12,51,10.80
2015,02,21,12,52,10.80
2015,02,21,12,53,10.80
2015,02,21,12,54,10.90
2015,02,21,12,55,10.90
2015,02,21,12,56,10.90
2015,02,21,12,57,10.90
2015,02,21,12,58,10.80
2015,02,21,12,59,10.80
2015,02,21,13,00,10.70
2015,02,21,13,01,10.70
2015,02,21,13,02,10.80
2015,02,21,13,03,10.80
2015,02,21,13,04,10.80
2015,02,21,13,05,10.80
2015,02,21,13,06,10.80
2015,02,21,13,07,10.80
2015,02,21,13,08,10.90
2015,02,21,13,09,11.00
2015,02,21,13,10,11.10
2015,02,21,13,11,11.20
2015,02,21,13,12,11.20
2015,02,21,13,13,11.30
2015,02,21,13,14,11.30
2015,02,21,13,15,11.40
2015,02,21,13,16,11.40
2015,02,21,13,17,11.50
2015,02,21,13,18,11.50
2015,02,21,13,19,11.50
2015,02,21,13,20,11.60
2015,02,21,13,21,11.60
2015,02,21,13,22,11.60
2015,02,21,13,23,11.60
2015,02,21,13,24,11.60
2015,02,21,13,25,11.70
2015,02,21,13,26,11.70
2015,02,21,13,27,11.70
2015,02,21,13,28,11.80
2015,02,21,13,29,11.80
2015,02,21,13,30,11.90
2015,02,21,13,31,11.90
2015,02,21,13,32,11.90
2015,02,21,13,33,12.00
2015,02,21,13,34,12.10
2015,02,21,13,35,12.10
2015,02,21,13,36,12.20
2015,02,21,13,37,12.20
2015,02,21,13,38,12.30
2015,02,21,13,39,12.40
2015,02,21,13,40,12.40
2015,02,21,13,41,12.50
2015,02,21,13,42,12.50
2015,02,21,13,43,12.60
2015,02,21,13,44,12.60
2015,02,21,13,45,12.70
2015,02,21,13,46,12.70
2015,02,21,13,47,12.70
2015,02,21,13,48,12.80
2015,02,21,13,49,12.80
2015,02,21,13,50,12.80
2015,02,21,13,51,12.80
2015,02,21,13,52,12.90
2015,02,21,13,53,12.90
2015,02,21,13,54,13.00
2015,02,21,13,55,13.00
2015,02,21,13,56,13.10
2015,02,21,13,57,13.10
2015,02,21,13,58,13.20
2015,02,21,13,59,13.20
2015,02,21,14,00,13.30
2015,02,21,14,01,13.30
2015,02,21,14,02,13.30
2015,02,21,14,03,13.30
2015,02,21,14,04,13.30
2015,02,21,14,05,13.30
2015,02,21,14,06,13.30
2015,02,21,14,07,13.40
2015,02,21,14,08,13.40
2015,02,21,14,09,13.40
2015,02,21,14,10,13.40
2015,02,21,14,11,13.50
2015,02,21,14,12,13.50
2015,02,21,14,13,13.60
2015,02,21,14,14,13.60
2015,02,21,14,15,13.60
2015,02,21,14,16,13.70
2015,02,21,14,17,13.80
2015,02,21,14,18,13.80
2015,02,21,14,19,13.80
2015,02,21,14,20,13.90
2015,02,21,14,21,13.90
2015,02,21,14,22,14.00
2015,02,21,14,23,14.00
2015,02,21,14,24,14.00
2015,02,21,14,25,13.90
2015,02,21,14,26,13.90
2015,02,21,14,27,13.90
2015,02,21,14,28,13.90
2015,02,21,14,29,13.90
2015,02,21,14,30,13.90
2015,02,21,14,31,13.90
2015,02,21,14,32,13.80
2015,02,21,14,33,13.80
2015,02,21,14,34,13.80
2015,02,21,14,35,13.80
2015,02,21,14,36,13.70
2015,02,21,14,37,13.70
2015,02,21,14,38,13.70
2015,02,21,14,39,13.70
2015,02,21,14,40,13.60
2015,02,21,14,41,13.60
2015,02,21,14,42,13.60
2015,02,21,14,43,13.70
2015,02,21,14,44,13.70
2015,02,21,14,45,13.70
2015,02,21,14,46,13.70
2015,02,21,14,47,13.80
2015,02,21,14,48,13.80
2015,02,21,14,49,13.90
2015,02,21,14,50,13.90
2015,02,21,14,51,14.00
2015,02,21,14,52,14.00
2015,02,21,14,53,14.10
2015,02,21,14,54,14.10
2015,02,21,14,55,14.10
2015,02,21,14,56,14.10
2015,02,21,14,57,14.10
2015,02,21,14,58,14.10
2015,02,21,14,59,14.10
2015,02,21,15,00,14.10
2015,02,21,15,01,14.10
2015,02,21,15,02,14.20
2015,02,21,15,03,14.20
2015,02,21,15,04,14.30
2015,02,21,15,05,14.40
2015,02,21,15,06,14.40
2015,02,21,15,07,14.50
2015,02,21,15,08,14.50
2015,02,21,15,09,14.60
2015,02,21,15,10,14.60
2015,02,21,15,11,14.60
2015,02,21,15,12,14.60
2015,02,21,15,13,14.60
2015,02,21,15,14,14.60
2015,02,21,15,15,14.60
2015,02,21,15,16,14.60
2015,02,21,15,17,14.60
2015,02,21,15,18,14.50
2015,02,21,15,19,14.50
2015,02,21,15,20,14.50
2015,02,21,15,21,14.50
2015,02,21,15,22,14.50
2015,02,21,15,23,14.50
2015,02,21,15,24,14.60
2015,02,21,15,25,14.60
2015,02,21,15,26,14.60
2015,02,21,15,27,14.60
2015,02,21,15,28,14.60
2015,02,21,15,29,14.60
2015,02,21,15,30,14.60
2015,02,21,15,31,14.60
2015,02,21,15,32,14.60
2015,02,21,15,33,14.60
2015,02,21,15,34,14.60
2015,02,21,15,35,14.60
2015,02,21,15,36,14.60
2015,02,21,15,37,14.60
2015,02,21,15,38,14.70
2015,02,21,15,39,14.70
2015,02,21,15,40,14.70
2015,02,21,15,41,14.80
2015,02,21,15,42,14.80
2015,02,21,15,43,14.80
2015,02,21,15,44,14.80
2015,02,21,15,45,14.80
2015,02,21,15,46,14.80
2015,02,21,15,47,14.70
2015,02,21,15,48,14.70
2015,02,21,15,49,14.60
2015,02,21,15,50,14.60
2015,02,21,15,51,14.60
2015,02,21,15,52,14.60
2015,02,21,15,53,14.60
2015,02,21,15,54,14.60
2015,02,21,15,55,14.60
2015,02,21,15,56,14.70
2015,02,21,15,57,14.70
2015,02,21,15,58,14.70
2015,02,21,15,59,14.70
2015,02,21,16,00,14.60
2015,02,21,16,01,14.60
2015,02,21,16,02,14.50
2015,02,21,16,03,14.40
2015,02,21,16,04,14.40
2015,02,21,16,05,14.30
2015,02,21,16,06,14.30
2015,02,21,16,07,14.30
2015,02,21,16,08,14.30
2015,02,21,16,09,14.30
2015,02,21,16,10,14.30
2015,02,21,16,11,14.30
2015,02,21,16,12,14.30
2015,02,21,16,13,14.30
2015,02,21,16,14,14.40
2015,02,21,16,15,14.40
2015,02,21,16,16,14.40
2015,02,21,16,17,14.50
2015,02,21,16,18,14.50
2015,02,21,16,19,14.60
2015,02,21,16,20,14.60
2015,02,21,16,21,14.60
2015,02,21,16,22,14.60
2015,02,21,16,23,14.60
2015,02,21,16,24,14.60
2015,02,21,16,25,14.70
2015,02,21,16,26,14.70
2015,02,21,16,27,14.70
2015,02,21,16,28,14.70
2015,02,21,16,29,14.70
2015,02,21,16,30,14.80
2015,02,21,16,31,14.80
2015,02,21,16,32,14.80
2015,02,21,16,33,14.80
2015,02,21,16,34,14.80
2015,02,21,16,35,14.90
2015,02,21,16,36,14.90
2015,02,21,16,37,14.90
2015,02,21,16,38,14.90
2015,02,21,16,39,14.90
2015,02,21,16,40,14.90
2015,02,21,16,41,14.90
2015,02,21,16,42,14.90
2015,02,21,16,43,14.90
2015,02,21,16,44,14.90
2015,02,21,16,45,14.90
2015,02,21,16,46,14.80
2015,02,21,16,47,14.80
2015,02,21,16,48,14.80
2015,02,21,16,49,14.70
2015,02,21,16,50,14.70
2015,02,21,16,51,14.60
2015,02,21,16,52,14.60
2015,02,21,16,53,14.50
2015,02,21,16,54,14.40
2015,02,21,16,55,14.40
2015,02,21,16,56,14.30
2015,02,21,16,57,14.30
2015,02,21,16,58,14.30
2015,02,21,16,59,14.20
2015,02,21,17,00,14.20
2015,02,21,17,01,14.10
2015,02,21,17,02,14.10
2015,02,21,17,03,14.00
2015,02,21,17,04,13.90
2015,02,21,17,05,13.80
2015,02,21,17,06,13.70
2015,02,21,17,07,13.70
2015,02,21,17,08,13.60
2015,02,21,17,09,13.60
2015,02,21,17,10,13.50
2015,02,21,17,11,13.50
2015,02,21,17,12,13.40
2015,02,21,17,13,13.40
2015,02,21,17,14,13.40
2015,02,21,17,15,13.40
2015,02,21,17,16,13.40
2015,02,21,17,17,13.50
2015,02,21,17,18,13.50
2015,02,21,17,19,13.50
2015,02,21,17,20,13.60
2015,02,21,17,21,13.60
2015,02,21,17,22,13.60
2015,02,21,17,23,13.70
2015,02,21,17,24,13.70
2015,02,21,17,25,13.70
2015,02,21,17,26,13.70
2015,02,21,17,27,13.70
2015,02,21,17,28,13.70
2015,02,21,17,29,13.60
2015,02,21,17,30,13.60
2015,02,21,17,31,13.60
2015,02,21,17,32,13.50
2015,02,21,17,33,13.40
2015,02,21,17,34,13.40
2015,02,21,17,35,13.30
2015,02,21,17,36,13.30
2015,02,21,17,37,13.20
2015,02,21,17,38,13.10
2015,02,21,17,39,13.00
2015,02,21,17,40,12.90
2015,02,21,17,41,12.80
2015,02,21,17,42,12.70
2015,02,21,17,43,12.60
2015,02,21,17,44,12.50
2015,02,21,17,45,12.40
2015,02,21,17,46,12.30
2015,02,21,17,47,12.20
2015,02,21,17,48,12.10
2015,02,21,17,49,12.00
2015,02,21,17,50,11.90
2015,02,21,17,51,11.80
2015,02,21,17,52,11.70
2015,02,21,17,53,11.60
2015,02,21,17,54,11.50
2015,02,21,17,55,11.40
2015,02,21,17,56,11.30
2015,02,21,17,57,11.20
2015,02,21,17,58,11.10
2015,02,21,17,59,10.90
2015,02,21,18,00,10.80
2015,02,21,18,01,10.70
2015,02,21,18,02,10.60
2015,02,21,18,03,10.50
2015,02,21,18,04,10.40
2015,02,21,18,05,10.40
2015,02,21,18,06,10.30
2015,02,21,18,07,10.20
2015,02,21,18,08,10.10
2015,02,21,18,09,10.10
2015,02,21,18,10,10.00
2015,02,21,18,11,10.00
2015,02,21,18,12,9.90
2015,02,21,18,13,9.80
2015,02,21,18,14,9.80
2015,02,21,18,15,9.70
2015,02,21,18,16,9.70
2015,02,21,18,17,9.60
2015,02,21,18,18,9.50
2015,02,21,18,19,9.50
2015,02,21,18,20,9.40
2015,02,21,18,21,9.30
2015,02,21,18,22,9.30
2015,02,21,18,23,9.20
2015,02,21,18,24,9.20
2015,02,21,18,25,9.20
2015,02,21,18,26,9.10
2015,02,21,18,27,9.10
2015,02,21,18,28,9.10
2015,02,21,18,29,9.10
2015,02,21,18,30,9.10
2015,02,21,18,31,9.10
2015,02,21,18,32,9.10
2015,02,21,18,33,9.10
2015,02,21,18,34,9.10
2015,02,21,18,35,9.10
2015,02,21,18,36,9.20
2015,02,21,18,37,9.30
2015,02,21,18,38,9.40
2015,02,21,18,39,9.40
2015,02,21,18,40,9.40
2015,02,21,18,41,9.40
2015,02,21,18,42,9.40
2015,02,21,18,43,9.30
2015,02,21,18,44,9.30
2015,02,21,18,45,9.30
2015,02,21,18,46,9.30
2015,02,21,18,47,9.20
2015,02,21,18,48,9.20
2015,02,21,18,49,9.20